INTELSAT 21 (IS-21)

Last updated on Tue Sep 22 2026 00:03:12 GMT+0000 (Coordinated Universal Time)

1 38749U 12045A 26264.47763062 -.00000289 00000+0 00000+0 0 9996 2 38749 0.0135 113.4505 0002089 59.8428 301.0328 1.00271011 51495
UTC large
Height (km)
Speed (km/s)
/
Latitude / Longitude
Inclination (degrees)
Orbital Period (minutes)
Azimuth
Elevation
Range (km)
Doppler Factor

Next 0 passes for location: London (51.5072 / 0.1276)

No passes found over London.
INTELSAT 21 (IS-21)